STARLINK-3049 (49436 NORAD) Tracking and Keplerian Element Data

This shows tracking and keplerian element data for the satellite.

Feedback or suggestion? Click here.




ElementValue
Catalog49436
NameSTARLINK-3049
Epoch Orbit485
Epoch Day340.25001157
Epoch Year2021
RAAN20.5933
Inclination53.2189
Eccentricity0.0002061
Argument of Perigee37.8986
Mean Anonmoly117.2356
Mean Motion15.73221198
Decay Rate-3.184E-05
L11 49436U 21104AE 21340.25001157 -.00003184 00000+0 -18245-4 0 9996
L22 49436 53.2189 20.5933 0002061 37.8986 117.2356 15.73221198 4859

Live tracking and technical data element details for STARLINK-3049 (NORAD 49436). STARLINK-3049 can be tracked NOW for your location showing map with azimuth and elevation plus other details from your city location.

Track the satellite on the map from your city or location and see movement details for azimuth, elevation, latitude, longitude, range, height, and movement on the map or in text.







IsCatalogInMostPopularTable: catalog: 49436, numindb: 1
Update: records affected: 1



GetName: 49436 STARLINK-3049

Hit Count: updated at: Wed, 08 Dec 2021 15:19:13 GMT